COSMOS 2195

导读

COSMOS 2195是独联体(CIS)于1992年7月1日发射的军用卫星,隶属于苏联/俄罗斯“宇宙”系列卫星。该系列卫星多承担军事侦察、通信或技术试验任务,任务细节长期处于保密状态。作为苏联解体后独联体早期航天活动的一部分,它延续了苏联航天技术体系,体现了当时俄罗斯在空间军事应用领域的技术积累,至今仍在轨道上完成既定任务。

基本信息
目录编号:
22006
目录名称:
COSMOS 2195
国际标识:
1992-036A
轨道中心:
EARTH
卫星名称:
COSMOS 2195
卫星全名:
--
卫星状态:
在轨 (已飞行12399 天)
发射日期:
1992-07-01 UTC
国别 :
俄罗斯(独联体) (CIS)
星等 :
--
轨道信息
数据来源 国际轨道数据 AOE轨道数据
星历时间 2026-06-12T13:40:29+0800
14小时前
查看轨道信息
2026-06-13T00:00:00+0800
3小时前
查看轨道信息
半长轴 7359.134km 7359.133km
偏心率 0.0035676 0.0035454
轨道倾角 82.935° 82.933°
近地点辐角 289.107° 287.691°
升交点赤经 61.828° 61.510°
平近点角 184.879° 154.998°
近地点 954.742km 954.904km
远地点 1007.252km 1007.088km
周期 104.713分钟 104.713分钟
每日圈数 13.751902 13.751903
详细信息
使用方式:
暂无
2D轨道图
3D轨道图
轨道高度分析图
轨道倾角分析图
轨道综合分析图
查看轨道综合分析图